Peotone Weather
Station Historical Data
 
Daily Summary for June 24, 2017 Units:  English    Metric   Both
« Previous Day
Next Day »
Daily Weekly Monthly Yearly Custom
  Current: High: Low: Average:
Temperature: 62.2 °F 65.5 °F 59.0 °F 61.6 °F
Dew Point: 58.3 °F 58.3 °F 56.1 °F 57.1 °F
Humidity: 87% 91% 76% 85%
Wind Speed: 5.8mph 10.3mph 1.1mph 4.8mph
Wind Gust: 9.2mph 11.5mph - -
WindWSW - - West
Pressure: 29.91 in 29.91 in 29.84 in -
Precipitation: 0.00 in      
Historical Graphs
 
 
Tabular Data for June 24, 2017
Time Temperature Dew Point Pressure Wind Wind Speed Wind Gust Humidity Rainfall Rate (Hourly) solar Conditions
00:00 65.5 °F 57.7 °F 29.84 in WNW 4.6 mph 11.5 mph 76% 0.00 in 0.00 W/m2
00:01 65.5 °F 57.7 °F 29.84 in West 10.3 mph 11.5 mph 76% 0.00 in 0.00 W/m2
00:05 65.4 °F 57.7 °F 29.84 in WNW 4.6 mph 10.4 mph 76% 0.00 in 0.00 W/m2
00:06 65.4 °F 57.7 °F 29.84 in WNW 4.6 mph 10.3 mph 76% 0.00 in 0.00 W/m2
00:10 65.0 °F 57.6 °F 29.84 in WNW 6.9 mph 8.1 mph 77% 0.00 in 0.00 W/m2
00:11 65.0 °F 57.6 °F 29.84 in WNW 5.8 mph 8.1 mph 77% 0.00 in 0.00 W/m2
00:15 64.6 °F 57.6 °F 29.85 in WNW 8.1 mph 8.1 mph 78% 0.00 in 0.00 W/m2
00:16 64.6 °F 57.6 °F 29.85 in West 4.6 mph 8.1 mph 78% 0.00 in 0.00 W/m2
00:20 64.3 °F 57.7 °F 29.85 in West 5.8 mph 9.2 mph 79% 0.00 in 0.00 W/m2
00:21 64.3 °F 57.7 °F 29.85 in West 6.9 mph 9.2 mph 79% 0.00 in 0.00 W/m2
00:25 64.1 °F 57.8 °F 29.85 in WNW 4.6 mph 9.2 mph 80% 0.00 in 0.00 W/m2
00:26 64.1 °F 57.8 °F 29.85 in WNW 4.6 mph 9.2 mph 80% 0.00 in 0.00 W/m2
00:30 63.9 °F 57.6 °F 29.85 in West 6.9 mph 10.4 mph 80% 0.00 in 0.00 W/m2
00:31 63.9 °F 57.6 °F 29.85 in West 6.9 mph 10.3 mph 80% 0.00 in 0.00 W/m2
00:35 63.8 °F 57.9 °F 29.85 in WNW 6.9 mph 9.2 mph 81% 0.00 in 0.00 W/m2
00:36 63.8 °F 57.9 °F 29.85 in WNW 3.4 mph 6.9 mph 81% 0.00 in 0.00 W/m2
00:40 63.6 °F 57.7 °F 29.85 in WNW 4.6 mph 8.1 mph 81% 0.00 in 0.00 W/m2
00:41 63.6 °F 57.7 °F 29.85 in WNW 4.6 mph 8.1 mph 81% 0.00 in 0.00 W/m2
00:45 63.5 °F 57.6 °F 29.85 in NW 4.6 mph 9.2 mph 81% 0.00 in 0.00 W/m2
00:46 63.5 °F 57.6 °F 29.85 in WNW 5.8 mph 5.8 mph 81% 0.00 in 0.00 W/m2
00:50 63.4 °F 57.5 °F 29.85 in West 5.8 mph 10.4 mph 81% 0.00 in 0.00 W/m2
00:51 63.4 °F 57.5 °F 29.85 in West 3.4 mph 5.8 mph 81% 0.00 in 0.00 W/m2
00:55 63.3 °F 57.7 °F 29.85 in WNW 6.9 mph 9.2 mph 82% 0.00 in 0.00 W/m2
00:56 63.2 °F 57.6 °F 29.85 in NW 5.8 mph 9.2 mph 82% 0.00 in 0.00 W/m2
01:00 63.2 °F 57.6 °F 29.85 in WNW 5.8 mph 9.2 mph 82% 0.00 in 0.00 W/m2
01:01 63.2 °F 57.6 °F 29.85 in WNW 8.1 mph 8.1 mph 82% 0.00 in 0.00 W/m2
01:05 63.1 °F 57.5 °F 29.85 in WNW 8.1 mph 8.1 mph 82% 0.00 in 0.00 W/m2
01:06 63.1 °F 57.5 °F 29.85 in WNW 6.9 mph 8.1 mph 82% 0.00 in 0.00 W/m2
01:10 63.0 °F 57.4 °F 29.85 in WNW 3.5 mph 8.1 mph 82% 0.00 in 0.00 W/m2
01:11 63.0 °F 57.4 °F 29.85 in WNW 2.3 mph 3.4 mph 82% 0.00 in 0.00 W/m2
01:15 62.9 °F 57.3 °F 29.85 in WNW 3.5 mph 8.1 mph 82% 0.00 in 0.00 W/m2
01:16 62.9 °F 57.3 °F 29.85 in WNW 3.4 mph 4.6 mph 82% 0.00 in 0.00 W/m2
01:20 62.9 °F 57.7 °F 29.85 in WNW 4.6 mph 8.1 mph 83% 0.00 in 0.00 W/m2
01:21 62.9 °F 57.7 °F 29.85 in WNW 2.3 mph 4.6 mph 83% 0.00 in 0.00 W/m2
01:25 62.7 °F 57.5 °F 29.86 in WNW 4.6 mph 9.2 mph 83% 0.00 in 0.00 W/m2
01:26 62.7 °F 57.5 °F 29.86 in WNW 3.4 mph 4.6 mph 83% 0.00 in 0.00 W/m2
01:30 62.3 °F 57.4 °F 29.86 in West 4.6 mph 6.9 mph 84% 0.00 in 0.00 W/m2
01:31 62.3 °F 57.4 °F 29.86 in West 4.6 mph 4.6 mph 84% 0.00 in 0.00 W/m2
01:35 62.1 °F 57.2 °F 29.86 in West 4.6 mph 6.9 mph 84% 0.00 in 0.00 W/m2
01:36 62.1 °F 57.2 °F 29.86 in WNW 5.8 mph 5.8 mph 84% 0.00 in 0.00 W/m2
01:40 61.9 °F 57.3 °F 29.86 in NW 5.8 mph 8.1 mph 85% 0.00 in 0.00 W/m2
01:42 61.9 °F 57.3 °F 29.86 in WNW 5.8 mph 5.8 mph 85% 0.00 in 0.00 W/m2
01:45 61.8 °F 57.2 °F 29.86 in West 3.5 mph 8.1 mph 85% 0.00 in 0.00 W/m2
01:47 61.8 °F 57.2 °F 29.86 in WNW 4.6 mph 8.1 mph 85% 0.00 in 0.00 W/m2
01:50 61.7 °F 57.2 °F 29.85 in WNW 4.6 mph 8.1 mph 85% 0.00 in 0.00 W/m2
01:52 61.6 °F 57.0 °F 29.86 in WNW 8.1 mph 8.1 mph 85% 0.00 in 0.00 W/m2
01:55 61.6 °F 57.0 °F 29.85 in WNW 3.5 mph 8.1 mph 85% 0.00 in 0.00 W/m2
01:57 61.6 °F 57.0 °F 29.85 in WNW 5.8 mph 5.8 mph 85% 0.00 in 0.00 W/m2
02:00 61.6 °F 57.0 °F 29.86 in WNW 3.5 mph 9.2 mph 85% 0.00 in 0.00 W/m2
02:02 61.5 °F 57.0 °F 29.86 in NW 6.9 mph 6.9 mph 85% 0.00 in 0.00 W/m2
02:05 61.5 °F 57.0 °F 29.86 in West 3.4 mph 8.1 mph 85% 0.00 in 0.00 W/m2
02:10 61.5 °F 57.0 °F 29.86 in West 2.3 mph 5.8 mph 85% 0.00 in 0.00 W/m2
02:15 61.4 °F 56.9 °F 29.86 in West 2.3 mph 6.9 mph 85% 0.00 in 0.00 W/m2
02:20 61.3 °F 57.1 °F 29.86 in WNW 3.4 mph 5.8 mph 86% 0.00 in 0.00 W/m2
02:25 61.2 °F 57.0 °F 29.86 in WNW 4.6 mph 9.2 mph 86% 0.00 in 0.00 W/m2
02:30 61.2 °F 57.0 °F 29.86 in West 1.1 mph 9.2 mph 86% 0.00 in 0.00 W/m2
02:35 61.2 °F 57.0 °F 29.86 in WNW 6.9 mph 6.9 mph 86% 0.00 in 0.00 W/m2
02:40 61.1 °F 56.9 °F 29.86 in West 4.6 mph 6.9 mph 86% 0.00 in 0.00 W/m2
02:45 61.0 °F 56.8 °F 29.86 in West 5.8 mph 6.9 mph 86% 0.00 in 0.00 W/m2
02:50 60.8 °F 56.9 °F 29.86 in West 4.6 mph 5.8 mph 87% 0.00 in 0.00 W/m2
02:55 60.7 °F 56.8 °F 29.86 in West 4.6 mph 6.9 mph 87% 0.00 in 0.00 W/m2
03:00 60.6 °F 56.7 °F 29.86 in West 6.9 mph 6.9 mph 87% 0.00 in 0.00 W/m2
03:05 60.6 °F 56.7 °F 29.86 in West 5.8 mph 5.8 mph 87% 0.00 in 0.00 W/m2
03:10 60.5 °F 56.6 °F 29.86 in West 3.4 mph 6.9 mph 87% 0.00 in 0.00 W/m2
03:15 60.4 °F 56.5 °F 29.87 in WNW 2.3 mph 5.8 mph 87% 0.00 in 0.00 W/m2
03:21 60.3 °F 56.7 °F 29.87 in WNW 3.4 mph 6.9 mph 88% 0.00 in 0.00 W/m2
03:26 60.3 °F 56.7 °F 29.87 in WNW 2.3 mph 4.6 mph 88% 0.00 in 0.00 W/m2
03:31 60.3 °F 56.7 °F 29.87 in WNW 5.8 mph 8.1 mph 88% 0.00 in 0.00 W/m2
03:36 60.3 °F 56.7 °F 29.87 in West 3.4 mph 5.8 mph 88% 0.00 in 0.00 W/m2
03:41 60.3 °F 56.7 °F 29.87 in WNW 3.4 mph 5.8 mph 88% 0.00 in 0.00 W/m2
03:46 60.2 °F 56.6 °F 29.87 in West 4.6 mph 8.1 mph 88% 0.00 in 0.00 W/m2
03:51 60.1 °F 56.5 °F 29.87 in West 3.4 mph 8.1 mph 88% 0.00 in 0.00 W/m2
03:56 60.0 °F 56.4 °F 29.88 in West 3.4 mph 5.8 mph 88% 0.00 in 0.00 W/m2
04:01 60.0 °F 56.4 °F 29.88 in West 4.6 mph 6.9 mph 88% 0.00 in 0.00 W/m2
04:06 59.9 °F 56.7 °F 29.88 in West 8.1 mph 8.1 mph 89% 0.00 in 0.00 W/m2
04:11 59.9 °F 56.7 °F 29.88 in West 4.6 mph 4.6 mph 89% 0.00 in 0.00 W/m2
04:16 59.9 °F 56.7 °F 29.88 in West 3.4 mph 8.1 mph 89% 0.00 in 0.00 W/m2
04:21 59.9 °F 56.7 °F 29.88 in West 3.4 mph 3.4 mph 89% 0.00 in 0.00 W/m2
04:26 59.9 °F 56.7 °F 29.88 in WNW 2.3 mph 4.6 mph 89% 0.00 in 0.00 W/m2
04:31 59.8 °F 56.6 °F 29.89 in WSW 6.9 mph 8.1 mph 89% 0.00 in 0.00 W/m2
04:36 59.7 °F 56.5 °F 29.89 in WNW 3.4 mph 4.6 mph 89% 0.00 in 0.00 W/m2
04:41 59.6 °F 56.4 °F 29.89 in West 5.8 mph 5.8 mph 89% 0.00 in 0.00 W/m2
04:46 59.6 °F 56.4 °F 29.89 in WNW 5.8 mph 5.8 mph 89% 0.00 in 0.00 W/m2
04:51 59.5 °F 56.6 °F 29.89 in West 4.6 mph 4.6 mph 90% 0.00 in 0.00 W/m2
04:57 59.4 °F 56.5 °F 29.89 in West 8.1 mph 8.1 mph 90% 0.00 in 0.00 W/m2
05:02 59.4 °F 56.5 °F 29.89 in West 2.3 mph 6.9 mph 90% 0.00 in 0.00 W/m2
05:07 59.3 °F 56.4 °F 29.89 in West 3.4 mph 5.8 mph 90% 0.00 in 0.00 W/m2
05:12 59.3 °F 56.4 °F 29.89 in West 1.1 mph 6.9 mph 90% 0.00 in 0.00 W/m2
05:17 59.2 °F 56.3 °F 29.89 in West 2.3 mph 4.6 mph 90% 0.00 in 0.00 W/m2
05:22 59.1 °F 56.2 °F 29.89 in West 3.4 mph 4.6 mph 90% 0.00 in 5.00 W/m2
05:27 59.0 °F 56.1 °F 29.89 in West 3.4 mph 4.6 mph 90% 0.00 in 7.00 W/m2
05:32 59.0 °F 56.1 °F 29.90 in West 2.3 mph 6.9 mph 90% 0.00 in 9.00 W/m2
05:37 59.0 °F 56.4 °F 29.90 in WNW 6.9 mph 6.9 mph 91% 0.00 in 11.00 W/m2
05:42 59.0 °F 56.4 °F 29.90 in WSW 4.6 mph 6.9 mph 91% 0.00 in 12.00 W/m2
05:48 59.1 °F 56.5 °F 29.90 in West 5.8 mph 6.9 mph 91% 0.00 in 16.00 W/m2
05:53 59.2 °F 56.6 °F 29.90 in WSW 5.8 mph 6.9 mph 91% 0.00 in 18.00 W/m2
05:58 59.3 °F 56.7 °F 29.90 in WSW 5.8 mph 5.8 mph 91% 0.00 in 19.00 W/m2
06:03 59.5 °F 56.6 °F 29.90 in West 4.6 mph 6.9 mph 90% 0.00 in 21.00 W/m2
06:08 59.6 °F 56.7 °F 29.90 in West 3.4 mph 8.1 mph 90% 0.00 in 23.00 W/m2
06:13 59.8 °F 56.9 °F 29.90 in West 4.6 mph 8.1 mph 90% 0.00 in 25.00 W/m2
06:18 60.0 °F 57.1 °F 29.90 in WSW 8.1 mph 8.1 mph 90% 0.00 in 28.00 W/m2
06:23 60.3 °F 57.0 °F 29.90 in West 4.6 mph 5.8 mph 89% 0.00 in 95.00 W/m2
06:28 60.4 °F 57.2 °F 29.90 in WNW 4.6 mph 6.9 mph 89% 0.00 in 158.00 W/m2
06:33 60.5 °F 57.2 °F 29.90 in West 4.6 mph 8.1 mph 89% 0.00 in 172.00 W/m2
06:38 60.9 °F 57.6 °F 29.90 in West 2.3 mph 4.6 mph 89% 0.00 in 186.00 W/m2
06:43 61.1 °F 57.5 °F 29.91 in West 5.8 mph 6.9 mph 88% 0.00 in 125.00 W/m2
06:48 61.4 °F 57.8 °F 29.91 in NW 5.8 mph 9.2 mph 88% 0.00 in 77.00 W/m2
06:53 61.6 °F 57.7 °F 29.91 in West 6.9 mph 10.3 mph 87% 0.00 in 227.00 W/m2
06:58 61.9 °F 58.0 °F 29.91 in West 5.8 mph 11.5 mph 87% 0.00 in 243.00 W/m2
07:03 62.2 °F 58.3 °F 29.91 in WSW 5.8 mph 9.2 mph 87% 0.00 in 258.00 W/m2
peotoneweather.com
Compliments of Weather Underground - 1 mb